Regional Weather Roundup
Issued by NWS

Home | Current Version | Previous Version | Text Only | Print | Product List | Glossary Off
Versions: 1 2 3 4 5 6 7 8 9 10 11 12 13 14 15 16 17 18 19 20 21 22 23 24 25 26 27 28 29 30 31 32 33 34 35 36 37 38 39 40 41 42 43 44 45 46 47 48 49 50

000
ASUS43 KMPX 060901
RWRMN
WEATHER ROUNDUP FOR MINNESOTA
NATIONAL WEATHER SERVICE TWIN CITIES/CHANHASSEN MN
300 AM CST SAT FEB 06 2016


NOTE: "FAIR" INDICATES FEW OR NO CLOUDS BELOW 12,000 FEET WITH NO
SIGNIFICANT WEATHER AND/OR OBSTRUCTIONS TO VISIBILITY. N/A MEANS
CURRENT SKY AND/OR WEATHER CONDITIONS ARE NOT AVAILABLE.

MNZ060>063-068>070-061000-
   Twin Cities Metro

CITY           SKY/WX    TMP DP  RH WIND       PRES   REMARKS
TWIN CITIES    CLOUDY    25  21  85 W12       30.16S WCI  14
ST PAUL        CLOUDY    26  22  84 W9        30.17S WCI  17
CRYSTAL        CLOUDY    25  21  85 W8        30.15R WCI  16
BLAINE         CLOUDY    27  23  86 W9        30.15R WCI  17
LAKEVILLE      CLOUDY    25  23  93 W9        30.15F WCI  15
EDEN PRAIRIE   CLOUDY    26  21  81 W7        30.15S WCI  18
SOUTH ST PAUL  CLOUDY    27  23  84 SW7       30.16S WCI  20
LAKE ELMO      CLOUDY    28  25  86 SW7       30.15F WCI  21
$$
MNZ001>005-007-008-013>017-022>024-027-028-061000-
   Northwest Minnesota

CITY           SKY/WX    TMP DP  RH WIND       PRES   REMARKS
BEMIDJI        CLOUDY    18  16  94 S3        30.00F
HALLOCK        CLOUDY    19  18  93 S9        29.96S WCI   9
ROSEAU         CLOUDY    19  16  86 S6        29.98F WCI  11
WARROAD        CLOUDY    18  14  86 S3        29.98F
THIEF RVR FALL CLOUDY    19  18  93 S8        29.98F WCI   9
CROOKSTON      CLOUDY    21  19  93 S10       30.00F WCI  10
FOSSTON        PTCLDY    19  18  93 S8        30.00F WCI   9
DETROIT LAKES  CLOUDY    21  21 100 S5        30.03F WCI  15
MOORHEAD       CLOUDY    18  16  93 S10       30.03S WCI   6
PARK RAPIDS    CLOUDY    20  18  92 S7        30.03S FOG     WCI  11
MAHNOMEN       FAIR      21  19  94 S8        30.01F WCI  11
$$
MNZ006-009>011-018-025>026-061000-
   North Central Minnesota

CITY           SKY/WX    TMP DP  RH WIND       PRES   REMARKS
BAUDETTE       CLOUDY    18  13  80 SW5       29.99S WCI  11
FLAG ISLAND    CLOUDY    18  16  93 S5        29.98S WCI  11
INTL FALLS     CLOUDY    19  15  84 SW5       29.99F WCI  12
WASKISH        CLOUDY    18  16  93 S3        30.00F
LONGVILLE      CLOUDY    19  18  93 SW3       30.04F
GRAND RAPIDS   MOCLDY    18  16  93 S6        30.02F WCI   9
CRANE LAKE     CLOUDY    19  16  86 S1        30.03F
ORR            CLOUDY    18  14  86 CALM      29.99F
COOK           CLOUDY    18  16  93 SW5       30.02F WCI  11
WALKER         PTSUNNY   18  17  93 S5        30.02F WCI  11
$$
MNZ012-019>021-037-061000-
   Northeast Minnesota

CITY           SKY/WX    TMP DP  RH WIND       PRES   REMARKS
DULUTH         CLOUDY    18  13  80 W8        30.03F WCI   8
ELY            CLOUDY    19  16  86 W3        30.00F
HIBBING        CLOUDY    17  15  92 CALM      30.03S
EVELETH        CLOUDY    21  18  86 W5        30.03S WCI  15
DULUTH HARBOR  CLOUDY    25  18  74 SW12      30.09F WCI  14
TWO HARBORS    CLOUDY    19  14  79 SW5       30.02F WCI  13
SILVER BAY     CLOUDY    19  14  79 CALM      30.01F
GRAND MARAIS     N/A     26  18  71 W6        30.03F WCI  19
G MARAIS ARPRT CLOUDY    19  12  73 W7        29.95F WCI  10
$$
MNZ029>031-032-039>041-046>048-054>057-064-061000-
   West Central Minnesota

CITY           SKY/WX    TMP DP  RH WIND       PRES   REMARKS
FERGUS FALLS   PTCLDY    18  16  93 SE5       30.09F WCI  11
WHEATON        CLOUDY    23  19  86 S9        30.08F WCI  13
MORRIS         CLOUDY    12  10  92 SE5       30.07F FOG     WCI   4
ALEXANDRIA     CLOUDY    17  15  92 S5        30.07F FOG     WCI  10
ELBOW LAKE     FAIR      15  14  95 E5        30.07F WCI   8
WADENA         FOG       19  18  93 S5        30.05F VSB 1/2 WCI  13
GLENWOOD       FOG       16  14  93 S5        30.09F VSB 1/4 WCI   9
APPLETON       CLOUDY    16  14  93 CALM      30.10F
BENSON         CLOUDY    14  10  85 CALM      30.10F
ORTONVILLE     PTCLDY    18  16  93 S6        30.08F WCI   9
MADISON        CLOUDY    18  16  93 SW8       30.11F WCI   7
WILLMAR        FAIR      18  16  93 CALM      30.13F FOG
$$
MNZ033>034-036-042>043-049>051-058-059-061000-
   Central Minnesota

CITY           SKY/WX    TMP DP  RH WIND       PRES   REMARKS
ST CLOUD       CLOUDY    23  20  88 CALM      30.12S
SAUK CENTRE    CLOUDY    23  22  96 SW6       30.10S FOG     WCI  15
PAYNESVILLE    PTCLDY    23  23 100 CALM      30.12F
AITKIN         CLOUDY    21  18  86 S3        30.05F
PINE RIVER     CLOUDY    19  18  93 SW3       30.09F
BRAINERD       CLOUDY    18  16  92 S6        30.07F WCI  10
STAPLES        CLOUDY    18  18 100 S5        30.07F FOG     WCI  11
LONG PRAIRIE   LGT SNOW  23  21  93 S9        30.09F VSB 3/4 WCI  13
LITTLE FALLS   CLOUDY    21  19  93 SW3       30.11S
LITCHFIELD     CLOUDY    27  27 100 CALM      30.13F
BUFFALO        CLOUDY    25  22  86 CALM      30.15S
MAPLE LAKE     CLOUDY    26  24  90 SW3       30.14S
$$
MNZ037-044-045-052-053-061000-
   East Central Minnesota

CITY           SKY/WX    TMP DP  RH WIND       PRES   REMARKS
PRINCETON      CLOUDY    27  21  80 CALM      30.12S
MORA           CLOUDY    25  19  80 W5        30.13S WCI  19
CAMBRIDGE      CLOUDY    27  18  69 CALM      30.11F
RUSH CITY      CLOUDY    25  21  85 W5        30.13S WCI  19
MOOSE LAKE     CLOUDY    23  18  80 SW5       30.07F WCI  17
HINCKLEY       CLOUDY    25  21  86 W6        30.11S WCI  18
CLOQUET        CLOUDY    21  16  79 SW6       30.05F WCI  14
MCGREGOR       CLOUDY    23  19  86 SW3       30.07S
$$
MNZ071>073-080-081-089-090-097-098-061000-
   Southwest Minnesota

CITY           SKY/WX    TMP DP  RH WIND       PRES   REMARKS
MONTEVIDEO     CLOUDY    18  16  93 SW7       30.13F WCI   8
GRANITE FALLS  CLOUDY    20  18  93 S7        30.15S WCI  11
CANBY          PTCLDY    26  23  89 SW7       30.12F WCI  18
MARSHALL         N/A    N/A N/A N/A MISG        N/A
REDWOOD FALLS  CLOUDY    15  13  91 SW7       30.15S WCI   5
OLIVIA         CLOUDY    18  14  86 SW5       30.14S WCI  11
PIPESTONE        N/A     23  18  80 W5        30.14S WCI  17
WINDOM         FOG       21  19  93 SW8       30.15S VSB 1/2 WCI  12
WORTHINGTON    CLOUDY    27  23  86 W14       30.16F VSB 1/2 WCI  15
JACKSON        FOG       23  19  86 W9        30.17S VSB 1/2 WCI  13
TRACY          CLOUDY    21  20  95 SW13      30.14S WCI   9
SLAYTON        FOG       21  21 100 W7        30.15S VSB 1   WCI  13
$$
MNZ065>067-074>077-082>085-091>093-061000-
   South Central Minnesota

CITY           SKY/WX    TMP DP  RH WIND       PRES   REMARKS
MANKATO        CLOUDY    27  21  80 W5        30.17S WCI  21
NEW ULM        CLOUDY    19  19 100 SW5       30.16S FOG     WCI  13
ST JAMES       CLOUDY    19  19 100 S5        30.18S WCI  13
FAIRMONT       CLOUDY    27  21  80 SW10      30.17S WCI  17
GLENCOE        CLOUDY    27  25  91 CALM      30.15S
FARIBAULT        N/A     27  23  86 W10       30.17S WCI  17
OWATONNA       CLOUDY    27  23  86 W12       30.16S WCI  16
WASECA         CLOUDY    27  23  86 W12       30.18S WCI  16
ALBERT LEA     CLOUDY    27  27 100 W7        30.17S FOG     WCI  19
$$
MNZ078>079-086>088-094>096-061000-
   Southeast Minnesota

CITY           SKY/WX    TMP DP  RH WIND       PRES   REMARKS
ROCHESTER      CLOUDY    25  23  92 SW14      30.15S FOG     WCI  13
RED WING       CLOUDY    27  23  86 W3        30.16S FOG
STANTON        CLOUDY    28  24  85 SW5       30.15S WCI  23
DODGE CENTER   CLOUDY    25  25 100 W10       30.15S FOG     WCI  15
WINONA         CLOUDY    30  27  86 W5        30.20S WCI  25
AUSTIN         CLOUDY    27  25  93 SW7       30.17S FOG     WCI  19
PRESTON        CLOUDY    24  23  95 SW7       30.17S FOG     WCI  16
$$
ABBREVIATIONS USED IN REMARKS
   TC - TEMPERATURES IN CELSIUS
  WCI - WIND CHILL INDEX
   HX - HEAT INDEX
  VSB - VISIBILITY
$$



USA.gov is the U.S. government's official web portal to all federal, state and local government web resources and services.